This demonstration page uses our WeatherBlox Daily Observations layout. Learn more.

Left ArrowRight Arrow

Hourly Observations for May 1, 2015

Temp ( °F °C ) Dew Point ( °F °C ) Humidity (%) Winds ( mph kmh ) Pressure ( in mb ) Visibility ( mi km ) Precip ( " mm )
12:53 am 00:53 Clear 47 8.3 26 -3.3 44 44 SW 10 17 29.95 1014 10 16 0.00 0.00
1:53 am 01:53 Clear 45 7.2 27 -2.8 49 49 SSW 12 19 29.96 1015 10 16 0.00 0.00
2:53 am 02:53 Clear 45 7.2 28 -2.2 52 52 SSW 10 17 29.96 1015 10 16 0.00 0.00
3:53 am 03:53 Clear 46 7.8 27 -2.8 47 47 SSW 12 19 29.96 1015 10 16 0.00 0.00
4:53 am 04:53 Clear 44 6.7 28 -2.2 53 53 SW 10 17 29.96 1015 10 16 0.00 0.00
5:53 am 05:53 Clear 43 6.1 29 -1.7 58 58 SW 12 19 29.96 1015 10 16 0.00 0.00
6:53 am 06:53 Sunny 44 6.7 29 -1.7 55 55 SW 3 6 29.95 1014 10 16 0.00 0.00
7:53 am 07:53 Sunny 45 7.2 32 0 61 61 WSW 3 6 29.96 1014 10 16 0.00 0.00
8:53 am 08:53 Sunny 54 12.2 32 0 43 43 SW 13 20 29.94 1014 10 16 0.00 0.00
9:53 am 09:53 Sunny 58 14.4 29 -1.7 33 33 SW 20 31 29.92 1013 10 16 0.00 0.00
10:53 am 10:53 Sunny 60 15.6 31 -0.6 33 33 SSW 23 37 29.90 1013 10 16 0.00 0.00
11:53 am 11:53 Sunny 65 18.3 31 -0.6 28 28 WSW 23 37 29.88 1012 10 16 0.00 0.00
12:53 pm 12:53 Sunny 68 20 30 -1.1 24 24 WSW 22 35 29.85 1011 10 16 0.00 0.00
1:53 pm 13:53 Sunny 71 21.7 30 -1.1 22 22 WSW 26 43 29.81 1010 10 16 0.00 0.00
2:53 pm 14:53 Sunny 72 22.2 28 -2.2 19 19 WSW 29 46 29.78 1008 10 16 0.00 0.00
3:53 pm 15:53 Sunny 74 23.3 29 -1.7 19 19 WSW 29 46 29.73 1007 10 16 0.00 0.00
4:53 pm 16:53 Mostly Cloudy 74 23.3 28 -2.2 18 18 WSW 26 43 29.72 1006 10 16 0.00 0.00
5:53 pm 17:53 Sunny 68 20 19 -7 16 16 WSW 22 35 29.83 1010 10 16 0.00 0.00
6:53 pm 18:53 Sunny 71 21.7 26 -3.3 19 19 W 21 33 29.70 1006 10 16 0.00 0.00
7:53 pm 19:53 Sunny 67 19.4 26 -3.3 21 21 W 15 24 29.71 1006 10 16 0.00 0.00
8:53 pm 20:53 Clear 59 15 27 -2.8 29 29 SW 6 9 29.71 1006 10 16 0.00 0.00
9:53 pm 21:53 Clear 53 11.7 29 -1.7 40 40 WSW 3 6 29.72 1006 10 16 0.00 0.00
10:53 pm 22:53 Clear 53 11.7 29 -1.7 40 40 SSW 10 17 29.71 1006 10 16 0.00 0.00
11:53 pm 23:53 Clear 52 11.1 29 -1.7 41 41 WSW 9 15 29.70 1006 10 16 0.00 0.00

Powered by AerisWeather